Location: Newark
(12.4436°N, 0.6167°W)
Time: 17:11:03
(UTC+00:00)

Vanguard 1 - Pass Details

Date: 14 December 2019
Orbit: 651 x 3832 km, 34.2° (Epoch: 20 January)

Event Time Altitude Azimuth Distance (km) Brightness Sun altitude
Rises 01:45:36 0° 243° (WSW) 6,208 - -62.0°
Reaches altitude 10° 01:49:05 10° 245° (WSW) 5,532 - -61.3°
Maximum altitude 02:07:56 73° 328° (NNW) 3,784 - -57.1°
Exits shadow 02:15:07 55° 31° (NNE) 4,283 13.0 -55.5°
Drops below altitude 10° 02:31:43 10° 53° (NE) 6,671 14.5 -51.7°
Sets 02:36:30 0° 55° (NE) 7,468 14.8 -50.6°
